sat.trackr.live / text

‹ back to catalog

STARLINK-35876

NORAD 67180 · 2025-303T

PAYLOAD ACTIVE UNKNOWN

§ Identity

Operator
Country
US
Launch date
2025-12-17
Launch site
AFETR
Launch vehicle
Mass (kg)
RCS (m²)

Purposes: comms

External: N2YO · Heavens-Above · Gunter

§ Orbital elements

Epoch: 2026-09-20T03:11:04.432416Z

Period
94.27 min
Inclination
43.0064°
Eccentricity
0.0001671
Mean motion
15.27586160 rev/d
Perigee alt
481.9 km
Apogee alt
484.2 km
Semi-major
6,861.2 km
B*
3.2124e-4
RAAN
292.5207°
Arg perigee
271.8135°
Mean anomaly
88.2525°
Rev number
4,247

§ Raw data

STARLINK-358761 67180U 25303T   26263.13269019  .00008590  00000+0  32124-3 0  99912 67180  43.0064 292.5207 0001671 271.8135  88.2525 15.27586160 42478

JSON: /api/v1/satellites/67180 · /tle

For live sub-satellite position, see the globe view (requires WebGL).

§ Visibility from observer

Set your observer location to see the next 7 days of passes ≥ 10°. The values pass through the URL so the page stays shareable.

No JS? Fill the form by hand. The geolocation button needs JavaScript.